Date String (YYYY-MM-DD hh:mm:ss) UTC,Instrument flags,Ambient pressure (hPa),Sample flow (lpm),Bypass flow (lpm),Sample temperature (°C),Ambient temperature (°C),ASC tube jacket temperature (°C),LED temperature (°C),Box temperature (°C),Sample RH (%),Span deviation,Mass concentration (μg/m³),Mass concentration (μg/m³),Mass concentration (μg/m³)
DateTimeUTC,F1_M11,P_M11,Q1_M11,Q2_M11,T1_M11,T2_M11,T3_M11,T4_M11,T5_M11,U1_M11,ZSPAN_M11,X0_M11,X2_M11,X1_M11
2022-04-17 05:00:00,,0820.5,5.01,0.00,27.8,26.8,00.0,36.8,29.6,09.6,0000.0,0039.30,0007.77,0003.73
2022-04-17 05:01:00,,0820.4,5.00,0.00,27.8,26.8,00.0,36.7,29.5,09.6,0000.0,0039.10,0007.69,0003.72
2022-04-17 05:02:00,,0820.5,5.00,0.00,27.7,26.7,00.0,36.7,29.5,09.6,0002.7,0039.37,0007.65,0003.70
2022-04-17 05:03:00,,0820.5,5.00,0.00,27.7,26.7,00.0,36.7,29.5,09.6,0003.6,0037.38,0007.62,0003.68
2022-04-17 05:04:00,,0820.5,5.00,0.00,27.7,26.7,00.0,36.7,29.5,09.7,0002.7,0036.17,0007.58,0003.64
2022-04-17 05:05:00,,0820.6,5.02,0.00,27.7,26.6,00.0,36.7,29.4,09.7,0002.3,0035.41,0007.58,0003.62
2022-04-17 05:06:00,,0820.6,5.00,0.00,27.7,26.6,00.0,36.7,29.4,09.7,0001.9,0034.17,0007.54,0003.60
2022-04-17 05:07:00,,0820.7,4.99,0.00,27.7,26.6,00.0,36.7,29.4,09.7,0001.0,0034.66,0007.48,0003.57
2022-04-17 05:08:00,,0820.7,5.01,0.00,27.7,26.6,00.0,36.7,29.4,09.7,0000.0,0037.31,0007.47,0003.54
2022-04-17 05:09:00,,0820.7,4.99,0.00,27.7,26.6,00.0,36.6,29.4,09.7,0000.0,0038.21,0007.53,0003.54
2022-04-17 05:10:00,,0820.7,4.99,0.00,27.6,26.6,00.0,36.6,29.4,09.7,0000.0,0037.37,0007.64,0003.55
2022-04-17 05:11:00,,0820.7,5.01,0.00,27.6,26.6,00.0,36.6,29.4,09.7,0000.0,0037.72,0007.72,0003.56
2022-04-17 05:12:00,,0820.7,4.99,0.00,27.6,26.6,00.0,36.6,29.4,09.6,0000.0,0038.56,0007.83,0003.56
2022-04-17 05:13:00,,0820.7,5.00,0.00,27.6,26.6,00.0,36.6,29.4,09.6,0000.0,0037.24,0007.78,0003.57
2022-04-17 05:14:00,,0820.8,4.99,0.00,27.6,26.5,00.0,36.6,29.4,09.6,0000.0,0037.52,0007.78,0003.58
2022-04-17 05:15:00,,0820.9,5.02,0.00,27.6,26.6,00.0,36.6,29.4,09.6,0000.0,0038.67,0007.81,0003.58
2022-04-17 05:16:00,,0821.0,5.00,0.00,27.6,26.6,00.0,36.6,29.4,09.6,0000.0,0037.78,0007.74,0003.57
2022-04-17 05:17:00,,0821.0,4.99,0.00,27.6,26.6,00.0,36.6,29.4,09.5,0000.0,0040.46,0007.76,0003.56
2022-04-17 05:18:00,,0821.0,5.02,0.00,27.6,26.6,00.0,36.5,29.3,09.4,0000.0,0042.11,0007.81,0003.58
2022-04-17 05:19:00,,0821.0,4.99,0.00,27.6,26.6,00.0,36.5,29.4,09.4,0000.0,0041.08,0007.79,0003.58
2022-04-17 05:20:00,,0821.0,4.99,0.00,27.6,26.6,00.0,36.5,29.3,09.4,0000.0,0040.42,0007.77,0003.58
2022-04-17 05:21:00,,0821.1,4.99,0.00,27.5,26.6,00.0,36.5,29.3,09.5,0000.0,0040.07,0007.73,0003.58
2022-04-17 05:22:00,,0821.1,5.01,0.00,27.5,26.6,00.0,36.5,29.3,09.5,0000.0,0039.36,0007.69,0003.57
2022-04-17 05:23:00,,0821.1,5.01,0.00,27.5,26.5,00.0,36.5,29.3,09.5,0000.0,0039.37,0007.71,0003.56
2022-04-17 05:24:00,,0821.1,4.99,0.00,27.5,26.5,00.0,36.5,29.3,09.6,0000.0,0039.15,0007.75,0003.54
2022-04-17 05:25:00,,0821.1,4.99,0.00,27.5,26.4,00.0,36.5,29.3,09.6,0000.0,0039.11,0007.74,0003.53
2022-04-17 05:26:00,,0821.1,5.01,0.00,27.5,26.4,00.0,36.5,29.3,09.7,0000.0,0037.52,0007.80,0003.53
2022-04-17 05:27:00,,0821.1,5.00,0.00,27.5,26.4,00.0,36.5,29.2,09.7,0000.0,0037.36,0007.87,0003.54
2022-04-17 05:28:00,,0821.1,5.00,0.00,27.5,26.4,00.0,36.4,29.2,09.7,0000.0,0036.36,0007.84,0003.54
2022-04-17 05:29:00,,0821.2,5.00,0.00,27.5,26.4,00.0,36.4,29.2,09.8,0000.0,0035.79,0007.97,0003.55
2022-04-17 05:30:00,,0821.2,5.02,0.00,27.5,26.5,00.0,36.4,29.3,09.8,0000.0,0035.15,0008.06,0003.55
2022-04-17 05:31:00,,0821.2,4.99,0.00,27.5,26.5,00.0,36.4,29.3,09.8,0000.0,0034.35,0008.01,0003.54
2022-04-17 05:32:00,,0821.2,5.00,0.00,27.5,26.5,00.0,36.4,29.3,09.8,0000.0,0034.34,0008.04,0003.54
2022-04-17 05:33:00,,0821.2,4.99,0.00,27.5,26.5,00.0,36.4,29.3,09.9,0000.0,0033.87,0007.95,0003.55
2022-04-17 05:34:00,,0821.3,5.01,0.00,27.5,26.6,00.0,36.4,29.3,09.8,0000.0,0033.92,0007.92,0003.53
2022-04-17 05:35:00,,0821.3,5.00,0.00,27.5,26.6,00.0,36.4,29.3,09.8,0000.0,0033.84,0007.88,0003.54
2022-04-17 05:36:00,,0821.4,4.99,0.00,27.5,26.5,00.0,36.4,29.3,09.7,0000.0,0034.13,0007.92,0003.55
2022-04-17 05:37:00,,0821.4,5.00,0.00,27.5,26.6,00.0,36.4,29.3,09.8,0000.0,0035.08,0007.85,0003.54
2022-04-17 05:38:00,,0821.5,5.01,0.00,27.4,26.6,00.0,36.4,29.2,09.7,0000.0,0034.44,0007.71,0003.53
2022-04-17 05:39:00,,0821.6,5.01,0.00,27.4,26.5,00.0,36.4,29.2,09.7,0000.0,0033.55,0007.74,0003.54
2022-04-17 05:40:00,,0821.7,4.99,0.00,27.4,26.5,00.0,36.4,29.2,09.7,0000.0,0033.48,0007.71,0003.54
2022-04-17 05:41:00,,0821.7,4.99,0.00,27.4,26.5,00.0,36.4,29.2,09.7,0000.0,0032.57,0007.59,0003.53
2022-04-17 05:42:00,,0821.7,5.00,0.00,27.4,26.5,00.0,36.4,29.2,09.7,0000.0,0034.22,0007.57,0003.53
2022-04-17 05:43:00,,0821.7,5.01,0.00,27.4,26.5,00.0,36.4,29.2,09.7,0000.0,0035.14,0007.51,0003.51
2022-04-17 05:44:00,,0821.7,5.00,0.00,27.4,26.5,00.0,36.4,29.2,09.7,0000.0,0036.36,0007.50,0003.49
2022-04-17 05:45:00,,0821.7,4.99,0.00,27.4,26.5,00.0,36.4,29.2,09.7,0000.0,0036.56,0007.51,0003.51
2022-04-17 05:46:00,,0821.8,5.01,0.00,27.4,26.5,00.0,36.3,29.2,09.7,0000.0,0037.50,0007.61,0003.51
2022-04-17 05:47:00,,0821.8,4.99,0.00,27.4,26.5,00.0,36.3,29.2,09.7,0000.0,0037.16,0007.63,0003.52
2022-04-17 05:48:00,,0821.8,4.99,0.00,27.4,26.5,00.0,36.3,29.2,09.7,0000.0,0035.84,0007.65,0003.54
2022-04-17 05:49:00,,0821.8,5.01,0.00,27.4,26.5,00.0,36.3,29.2,09.9,0000.0,0038.23,0007.75,0003.54
2022-04-17 05:50:00,,0821.8,5.00,0.00,27.4,26.5,00.0,36.3,29.2,09.9,0000.0,0039.32,0007.69,0003.52
2022-04-17 05:51:00,,0821.7,5.00,0.00,27.4,26.5,00.0,36.3,29.2,09.7,0000.0,0038.42,0007.66,0003.52
2022-04-17 05:52:00,,0821.7,4.99,0.00,27.4,26.5,00.0,36.3,29.2,09.7,0000.0,0038.27,0007.71,0003.53
2022-04-17 05:53:00,,0821.7,5.01,0.00,27.4,26.5,00.0,36.3,29.2,10.3,0000.0,0037.96,0007.78,0003.54
2022-04-17 05:54:00,,0821.8,5.00,0.00,27.4,26.5,00.0,36.3,29.2,10.5,0000.0,0036.55,0007.72,0003.55
2022-04-17 05:55:00,,0821.8,5.01,0.00,27.4,26.5,00.0,36.3,29.2,10.2,0000.0,0035.70,0007.74,0003.55
2022-04-17 05:56:00,,0821.8,5.00,0.00,27.4,26.6,00.0,36.3,29.2,10.3,0000.0,0037.00,0007.67,0003.54
2022-04-17 05:57:00,,0821.8,4.99,0.00,27.4,26.6,00.0,36.3,29.2,11.2,0000.0,0036.69,0007.59,0003.52
2022-04-17 05:58:00,,0821.8,5.00,0.00,27.4,26.6,00.0,36.3,29.2,11.2,0000.0,0035.72,0007.43,0003.47
2022-04-17 05:59:00,,0821.7,5.01,0.00,27.4,26.6,00.0,36.3,29.3,11.1,0000.0,0035.06,0007.29,0003.43
